Location: Betzi
(47.2343°N, 9.5260°E)
Time: 16:18:17
(UTC+00:00)

NOSS 2-2 (C) - Pass Details

Date: 27 May 2022
Orbit: 439 x 1763 km, 63.3° (Epoch: 02 June)

Event Time Altitude Azimuth Distance (km) Brightness Sun altitude
Rises 00:16:20 0° 316° (NW) 3,035 7.5 -20.3°
Reaches altitude 10° 00:18:23 10° 311° (NW) 2,262 6.8 -20.2°
Maximum altitude 00:23:28 55° 235° (SW) 1,107 4.5 -20.0°
Enters shadow 00:26:39 30° 173° (S) 1,782 5.4 -19.8°
